EJU41HA GVAC-LPPT

Flight info

Callsign EJU41HA
Flight time N/A
Altitude 37000
Route DIMKI1A DIMKI DCT IPERA N873 GDV N858 VASTO DCT BAROK DCT VATZI
Aircraft A20N/M-SDE2E3FGHIJ1RWXYZ/LB1G1

Departure

Time 2026-05-07 07:20
Airport Amílcar Cabral International Airport (GVAC)

Arrival

Time N/A
Airport Lisbon Humberto Delgado Airport (LPPT)
Time Latitude Longitude Altitude Speed Heading
2026-05-07 06:47 16.73361 -22.94497 189 ft 0 kts 90°
2026-05-07 07:12 16.73361 -22.94499 189 ft 1 kts 90°
2026-05-07 07:12 16.73361 -22.94515 189 ft 2 kts 91°
2026-05-07 07:12 16.73362 -22.94530 189 ft 2 kts 90°
2026-05-07 07:13 16.73362 -22.94546 189 ft 2 kts 91°
2026-05-07 07:13 16.73362 -22.94562 190 ft 2 kts 91°
2026-05-07 07:13 16.73362 -22.94577 190 ft 2 kts 91°
2026-05-07 07:13 16.73363 -22.94593 190 ft 2 kts 91°
2026-05-07 07:14 16.73363 -22.94599 190 ft 0 kts 90°
2026-05-07 07:16 16.73354 -22.94594 190 ft 4 kts 179°
2026-05-07 07:16 16.73295 -22.94593 192 ft 12 kts 179°
2026-05-07 07:17 16.73191 -22.94591 192 ft 16 kts 179°
2026-05-07 07:17 16.73080 -22.94614 192 ft 16 kts 224°
2026-05-07 07:17 16.72997 -22.94688 192 ft 16 kts 188°
2026-05-07 07:17 16.72884 -22.94690 192 ft 16 kts 180°
2026-05-07 07:18 16.72770 -22.94689 190 ft 17 kts 179°
2026-05-07 07:18 16.72646 -22.94687 188 ft 18 kts 179°
2026-05-07 07:18 16.72516 -22.94686 186 ft 19 kts 181°
2026-05-07 07:18 16.72405 -22.94722 184 ft 8 kts 270°
2026-05-07 07:19 16.72405 -22.94725 184 ft 0 kts 270°
2026-05-07 07:19 16.72405 -22.94727 184 ft 2 kts 270°
2026-05-07 07:19 16.72403 -22.94806 184 ft 15 kts 269°
2026-05-07 07:19 16.72446 -22.94887 184 ft 14 kts 359°
2026-05-07 07:20 16.72643 -22.94887 187 ft 57 kts 359°
2026-05-07 07:20 16.73272 -22.94892 193 ft 121 kts 359°
2026-05-07 07:20 16.74279 -22.94901 336 ft 158 kts 360°
2026-05-07 07:20 16.75374 -22.94932 887 ft 160 kts 360°
2026-05-07 07:21 16.76491 -22.94957 1505 ft 163 kts
2026-05-07 07:21 16.77617 -22.94969 2098 ft 168 kts
2026-05-07 07:21 16.78796 -22.94972 2622 ft 171 kts
2026-05-07 07:21 16.79958 -22.94970 3269 ft 166 kts
2026-05-07 07:22 16.81098 -22.94972 3822 ft 168 kts
2026-05-07 07:22 16.82318 -22.94976 4158 ft 184 kts
2026-05-07 07:22 16.83648 -22.94984 4510 ft 201 kts
2026-05-07 07:22 16.85106 -22.94996 4857 ft 219 kts
2026-05-07 07:23 16.86717 -22.95011 5171 ft 242 kts
2026-05-07 07:23 16.88469 -22.95028 5617 ft 260 kts
2026-05-07 07:23 16.90290 -22.95046 6214 ft 271 kts
2026-05-07 07:23 16.92148 -22.94757 6995 ft 273 kts 20°
2026-05-07 07:24 16.93829 -22.93862 7799 ft 275 kts 33°
2026-05-07 07:24 16.95407 -22.92732 8579 ft 278 kts 36°
2026-05-07 07:24 16.96967 -22.91578 9324 ft 282 kts 36°
2026-05-07 07:24 16.98568 -22.90397 10070 ft 285 kts 36°
2026-05-07 07:25 17.01942 -22.87929 10985 ft 313 kts 34°
2026-05-07 07:25 17.03763 -22.86605 11492 ft 323 kts 34°
2026-05-07 07:25 17.05599 -22.85276 12203 ft 326 kts 34°
2026-05-07 07:26 17.07471 -22.83923 12932 ft 328 kts 34°
2026-05-07 07:26 17.09326 -22.82581 13648 ft 330 kts 34°
2026-05-07 07:26 17.11219 -22.81211 14364 ft 332 kts 34°
2026-05-07 07:26 17.13127 -22.79831 15063 ft 334 kts 34°
2026-05-07 07:27 17.15016 -22.78465 15733 ft 336 kts 33°
2026-05-07 07:27 17.16937 -22.77074 16393 ft 338 kts 33°
2026-05-07 07:27 17.18878 -22.75670 17038 ft 341 kts 33°
2026-05-07 07:27 17.20811 -22.74271 17674 ft 342 kts 33°
2026-05-07 07:28 17.22780 -22.72845 18308 ft 344 kts 33°
2026-05-07 07:28 17.24747 -22.71421 18900 ft 347 kts 32°
2026-05-07 07:28 17.26717 -22.69994 19470 ft 349 kts 32°
2026-05-07 07:28 17.28714 -22.68548 20029 ft 352 kts 32°
2026-05-07 07:29 17.30735 -22.67084 20570 ft 355 kts 32°
2026-05-07 07:29 17.32755 -22.65620 21083 ft 357 kts 31°
2026-05-07 07:29 17.34805 -22.64135 21589 ft 360 kts 31°
2026-05-07 07:29 17.36865 -22.62641 22081 ft 363 kts 31°
2026-05-07 07:30 17.38930 -22.61144 22557 ft 366 kts 31°
2026-05-07 07:30 17.41041 -22.59613 23030 ft 368 kts 30°
2026-05-07 07:30 17.43148 -22.58084 23483 ft 371 kts 30°
2026-05-07 07:30 17.45270 -22.56544 23921 ft 374 kts 30°
2026-05-07 07:31 17.47409 -22.54991 24350 ft 377 kts 30°
2026-05-07 07:31 17.49562 -22.53428 24767 ft 380 kts 30°
2026-05-07 07:31 17.51744 -22.51842 25174 ft 383 kts 30°
2026-05-07 07:31 17.53935 -22.50250 25568 ft 386 kts 29°
2026-05-07 07:32 17.56143 -22.48646 25951 ft 389 kts 29°
2026-05-07 07:32 17.58369 -22.47027 26323 ft 392 kts 29°
2026-05-07 07:32 17.60610 -22.45397 26683 ft 395 kts 29°
2026-05-07 07:32 17.62856 -22.43764 27031 ft 398 kts 29°
2026-05-07 07:33 17.65151 -22.42094 27370 ft 401 kts 28°
2026-05-07 07:33 17.67427 -22.40437 27696 ft 404 kts 28°
2026-05-07 07:33 17.69749 -22.38746 28019 ft 407 kts 28°
2026-05-07 07:33 17.72059 -22.37064 28329 ft 410 kts 28°
2026-05-07 07:34 17.74421 -22.35343 28637 ft 413 kts 28°
2026-05-07 07:34 17.76782 -22.33623 28922 ft 416 kts 28°
2026-05-07 07:34 17.79137 -22.31906 29195 ft 419 kts 28°
2026-05-07 07:34 17.81553 -22.30145 29470 ft 422 kts 28°
2026-05-07 07:35 17.83971 -22.28380 29737 ft 424 kts 28°
2026-05-07 07:35 17.86384 -22.26619 30002 ft 427 kts 28°
2026-05-07 07:35 17.88850 -22.24866 30282 ft 427 kts 26°
2026-05-07 07:35 17.91371 -22.23250 30537 ft 427 kts 24°
2026-05-07 07:36 17.93901 -22.21688 30772 ft 430 kts 23°
2026-05-07 07:36 17.96486 -22.20102 31006 ft 432 kts 23°
2026-05-07 07:36 17.99085 -22.18508 31234 ft 435 kts 23°
2026-05-07 07:36 18.01682 -22.16912 31509 ft 435 kts 23°
2026-05-07 07:37 18.04286 -22.15309 31813 ft 435 kts 23°
2026-05-07 07:37 18.06890 -22.13706 32098 ft 436 kts 23°
2026-05-07 07:37 18.09510 -22.12092 32366 ft 436 kts 23°
2026-05-07 07:37 18.12133 -22.10475 32629 ft 437 kts 23°
2026-05-07 07:38 18.14751 -22.08862 32886 ft 438 kts 23°
2026-05-07 07:38 18.17350 -22.07259 33132 ft 438 kts 23°
2026-05-07 07:38 18.19973 -22.05641 33372 ft 439 kts 22°
2026-05-07 07:38 18.22613 -22.04012 33608 ft 440 kts 22°
2026-05-07 07:39 18.25232 -22.02395 33836 ft 440 kts 22°
2026-05-07 07:39 18.27884 -22.00757 34059 ft 441 kts 22°
2026-05-07 07:39 18.30493 -21.99146 34281 ft 441 kts 22°
2026-05-07 07:39 18.33152 -21.97502 34524 ft 441 kts 22°
2026-05-07 07:40 18.35759 -21.95890 34766 ft 440 kts 22°
2026-05-07 07:40 18.38386 -21.94262 35008 ft 439 kts 21°
2026-05-07 07:40 18.41017 -21.92620 35364 ft 435 kts 21°
2026-05-07 07:40 18.43573 -21.91036 35689 ft 431 kts 21°
2026-05-07 07:41 18.46151 -21.89444 35923 ft 430 kts 21°
2026-05-07 07:41 18.51305 -21.86261 35995 ft 431 kts 21°
2026-05-07 07:42 18.56446 -21.83078 35999 ft 431 kts 21°
2026-05-07 07:42 18.61608 -21.79877 36000 ft 431 kts 21°
2026-05-07 07:43 18.66748 -21.76687 36000 ft 431 kts 21°
2026-05-07 07:43 18.71920 -21.73475 36000 ft 431 kts 21°
2026-05-07 07:44 18.77055 -21.70282 36000 ft 431 kts 21°
2026-05-07 07:44 18.82213 -21.67073 36000 ft 431 kts 21°
2026-05-07 07:45 18.87368 -21.63863 36000 ft 431 kts 21°
2026-05-07 07:45 18.92509 -21.60660 36000 ft 431 kts 21°
2026-05-07 07:46 18.97664 -21.57446 36000 ft 431 kts 21°
2026-05-07 07:46 19.02811 -21.54234 35999 ft 431 kts 21°
2026-05-07 07:47 19.07948 -21.51027 35999 ft 431 kts 21°
2026-05-07 07:47 19.13113 -21.47799 36000 ft 431 kts 21°
2026-05-07 07:48 19.18248 -21.44590 36000 ft 431 kts 21°
2026-05-07 07:48 19.23411 -21.41359 36000 ft 431 kts 21°
2026-05-07 07:49 19.28539 -21.38147 36000 ft 431 kts 21°
2026-05-07 07:49 19.33665 -21.34936 36000 ft 431 kts 21°
2026-05-07 07:50 19.38811 -21.31708 35999 ft 431 kts 21°
2026-05-07 07:50 19.43968 -21.28472 35999 ft 431 kts 21°
2026-05-07 07:51 19.49110 -21.25242 36000 ft 431 kts 21°
2026-05-07 07:51 19.54251 -21.22010 36000 ft 431 kts 21°
2026-05-07 07:52 19.59381 -21.18783 36000 ft 431 kts 21°
2026-05-07 07:52 19.64497 -21.15563 36000 ft 431 kts 21°
2026-05-07 07:53 19.69649 -21.12318 36000 ft 431 kts 21°
2026-05-07 07:53 19.74780 -21.09083 36000 ft 431 kts 21°
2026-05-07 07:54 19.79928 -21.05835 36000 ft 431 kts 21°
2026-05-07 07:54 19.85034 -21.02611 36000 ft 431 kts 21°
2026-05-07 07:55 19.90184 -20.99357 36000 ft 431 kts 21°
2026-05-07 07:55 19.95342 -20.96122 36002 ft 430 kts 24°
2026-05-07 07:56 20.00455 -20.92880 36000 ft 430 kts 25°
2026-05-07 07:56 20.05591 -20.89614 36000 ft 430 kts 25°
2026-05-07 07:57 20.10712 -20.86364 36000 ft 430 kts 25°
2026-05-07 07:57 20.15812 -20.83129 36000 ft 430 kts 25°
2026-05-07 07:58 20.20948 -20.79869 36000 ft 430 kts 25°
2026-05-07 07:58 20.26068 -20.76617 36000 ft 430 kts 24°
2026-05-07 07:59 20.31202 -20.73354 36000 ft 430 kts 25°
2026-05-07 07:59 20.36304 -20.70108 36000 ft 430 kts 25°
2026-05-07 08:00 20.41420 -20.66842 36000 ft 430 kts 25°
2026-05-07 08:00 20.46530 -20.63576 36000 ft 430 kts 25°
2026-05-07 08:01 20.51671 -20.60288 36000 ft 430 kts 25°
2026-05-07 08:01 20.56781 -20.57019 36000 ft 430 kts 25°
2026-05-07 08:02 20.61902 -20.53740 36000 ft 430 kts 25°
2026-05-07 08:02 20.67012 -20.50466 36000 ft 430 kts 25°
2026-05-07 08:03 20.72122 -20.47189 36000 ft 430 kts 25°
2026-05-07 08:03 20.77232 -20.43910 36000 ft 430 kts 25°
2026-05-07 08:04 20.82318 -20.40642 36000 ft 430 kts 25°
2026-05-07 08:04 20.87426 -20.37359 35999 ft 430 kts 25°
2026-05-07 08:05 20.92528 -20.34077 35997 ft 430 kts 25°
2026-05-07 08:05 20.97645 -20.30783 35999 ft 430 kts 25°
2026-05-07 08:06 21.02766 -20.27484 36000 ft 430 kts 25°
2026-05-07 08:06 21.07872 -20.24191 36000 ft 430 kts 25°
2026-05-07 08:07 21.12972 -20.20900 36000 ft 430 kts 25°
2026-05-07 08:07 21.18079 -20.17600 36000 ft 430 kts 25°
2026-05-07 08:08 21.23193 -20.14295 36000 ft 430 kts 25°
2026-05-07 08:08 21.28276 -20.11006 36000 ft 430 kts 25°
2026-05-07 08:09 21.33383 -20.07699 36000 ft 430 kts 25°
2026-05-07 08:09 21.38487 -20.04392 36000 ft 430 kts 25°
2026-05-07 08:10 21.43576 -20.01092 36000 ft 430 kts 25°
2026-05-07 08:10 21.48672 -19.97793 36016 ft 422 kts 26°
2026-05-07 08:10 21.51119 -19.96202 36002 ft 409 kts 26°
2026-05-07 08:11 21.53549 -19.94618 36001 ft 407 kts 26°
2026-05-07 08:11 21.58385 -19.91471 36000 ft 407 kts 26°
2026-05-07 08:12 21.63204 -19.88335 36000 ft 407 kts 26°
2026-05-07 08:12 21.68044 -19.85183 36000 ft 407 kts 26°
2026-05-07 08:13 21.72845 -19.82054 36000 ft 407 kts 26°
2026-05-07 08:13 21.77679 -19.78902 36000 ft 407 kts 26°
2026-05-07 08:14 21.82491 -19.75761 35999 ft 407 kts 26°
2026-05-07 08:14 21.87324 -19.72605 35999 ft 407 kts 26°
2026-05-07 08:15 21.92052 -19.69514 35999 ft 407 kts 26°
2026-05-07 08:15 21.96880 -19.66356 35999 ft 407 kts 26°
2026-05-07 08:16 22.01713 -19.63193 35999 ft 407 kts 26°
2026-05-07 08:16 22.06516 -19.60045 35999 ft 407 kts 26°
2026-05-07 08:17 22.11345 -19.56876 36001 ft 407 kts 26°
2026-05-07 08:17 22.16163 -19.53710 36000 ft 407 kts 26°
2026-05-07 08:18 22.20974 -19.50548 36000 ft 407 kts 26°
2026-05-07 08:18 22.25770 -19.47395 36000 ft 407 kts 26°
2026-05-07 08:19 22.30604 -19.44213 36000 ft 407 kts 26°
2026-05-07 08:19 22.35395 -19.41058 36000 ft 407 kts 26°
2026-05-07 08:20 22.40233 -19.37868 36000 ft 407 kts 26°
2026-05-07 08:20 22.45041 -19.34696 35999 ft 407 kts 26°
2026-05-07 08:21 22.49839 -19.31528 36000 ft 407 kts 26°
2026-05-07 08:21 22.54658 -19.28344 36000 ft 408 kts 26°
2026-05-07 08:22 22.59495 -19.25145 36000 ft 408 kts 26°
2026-05-07 08:22 22.64307 -19.21960 36000 ft 407 kts 26°
2026-05-07 08:23 22.69102 -19.18783 36000 ft 407 kts 26°
2026-05-07 08:23 22.73935 -19.15579 36000 ft 407 kts 26°
2026-05-07 08:24 22.78759 -19.12377 36000 ft 407 kts 26°
2026-05-07 08:24 22.83558 -19.09191 36000 ft 407 kts 26°
2026-05-07 08:25 22.88387 -19.05981 36000 ft 407 kts 26°
2026-05-07 08:25 22.93207 -19.02772 35992 ft 408 kts 26°
2026-05-07 08:26 23.00524 -18.97900 35999 ft 415 kts 26°
2026-05-07 08:26 23.05399 -18.94651 35999 ft 415 kts 26°
2026-05-07 08:27 23.10298 -18.91382 36000 ft 415 kts 26°
2026-05-07 08:27 23.15204 -18.88106 36000 ft 415 kts 26°
2026-05-07 08:28 23.20093 -18.84838 36000 ft 415 kts 26°
2026-05-07 08:28 23.24980 -18.81568 36000 ft 414 kts 26°
2026-05-07 08:29 23.29872 -18.78293 36000 ft 414 kts 26°
2026-05-07 08:29 23.34782 -18.75003 36000 ft 414 kts 26°
2026-05-07 08:30 23.39668 -18.71725 36000 ft 414 kts 26°
2026-05-07 08:30 23.44572 -18.68433 36000 ft 414 kts 26°
2026-05-07 08:31 23.49442 -18.65161 36000 ft 415 kts 26°
2026-05-07 08:31 23.54340 -18.61867 36000 ft 415 kts 26°
2026-05-07 08:32 23.59255 -18.58559 36000 ft 415 kts 26°
2026-05-07 08:32 23.64131 -18.55273 36000 ft 415 kts 26°
2026-05-07 08:33 23.69026 -18.51973 35999 ft 415 kts 26°
2026-05-07 08:33 23.73923 -18.48667 35999 ft 415 kts 26°
2026-05-07 08:34 23.78822 -18.45358 35999 ft 415 kts 26°
2026-05-07 08:34 23.83707 -18.42055 35999 ft 415 kts 26°
2026-05-07 08:35 23.88616 -18.38733 35999 ft 415 kts 26°
2026-05-07 08:35 23.93488 -18.35433 35999 ft 415 kts 26°
2026-05-07 08:36 23.98391 -18.32109 35999 ft 415 kts 26°
2026-05-07 08:36 24.03295 -18.28782 36000 ft 415 kts 26°
2026-05-07 08:37 24.08157 -18.25480 36000 ft 415 kts 26°
2026-05-07 08:37 24.13070 -18.22140 36000 ft 415 kts 26°
2026-05-07 08:38 24.17941 -18.18826 36000 ft 415 kts 26°
2026-05-07 08:38 24.22822 -18.15502 36000 ft 415 kts 26°
2026-05-07 08:39 24.27722 -18.12161 36000 ft 415 kts 26°
2026-05-07 08:39 24.32600 -18.08833 36000 ft 415 kts 26°
2026-05-07 08:40 24.37474 -18.05505 36000 ft 415 kts 26°
2026-05-07 08:40 24.42355 -18.02184 36002 ft 408 kts 28°
2026-05-07 08:41 24.47131 -17.98908 36000 ft 405 kts 28°
2026-05-07 08:41 24.51897 -17.95638 36000 ft 405 kts 28°
2026-05-07 08:42 24.56646 -17.92382 36000 ft 405 kts 28°
2026-05-07 08:42 24.61393 -17.89125 36000 ft 405 kts 28°
2026-05-07 08:43 24.66178 -17.85839 36000 ft 404 kts 28°
2026-05-07 08:43 24.70938 -17.82568 36000 ft 404 kts 28°
2026-05-07 08:44 24.75669 -17.79314 35999 ft 404 kts 28°
2026-05-07 08:44 24.80424 -17.76041 35999 ft 404 kts 28°
2026-05-07 08:45 24.85171 -17.72770 36000 ft 405 kts 28°
2026-05-07 08:45 24.89942 -17.69480 35999 ft 405 kts 28°
2026-05-07 08:46 24.94692 -17.66202 35999 ft 405 kts 28°
2026-05-07 08:46 24.99452 -17.62913 35999 ft 405 kts 28°
2026-05-07 08:47 25.04199 -17.59623 35999 ft 405 kts 28°
2026-05-07 08:47 25.08961 -17.56319 35999 ft 405 kts 28°
2026-05-07 08:48 25.13700 -17.53030 36000 ft 405 kts 28°
2026-05-07 08:48 25.18465 -17.49719 36000 ft 405 kts 28°
2026-05-07 08:49 25.23218 -17.46415 36000 ft 405 kts 28°
2026-05-07 08:49 25.27958 -17.43115 36000 ft 405 kts 28°
2026-05-07 08:50 25.32713 -17.39803 36000 ft 405 kts 28°
2026-05-07 08:50 25.37433 -17.36513 36000 ft 405 kts 28°
2026-05-07 08:51 25.42202 -17.33185 35999 ft 405 kts 28°
2026-05-07 08:51 25.46926 -17.29886 35999 ft 405 kts 28°
2026-05-07 08:52 25.51681 -17.26562 36000 ft 405 kts 28°
2026-05-07 08:52 25.56408 -17.23254 36000 ft 405 kts 28°
2026-05-07 08:53 25.61153 -17.19931 36000 ft 405 kts 28°
2026-05-07 08:53 25.65899 -17.16604 36000 ft 405 kts 28°
2026-05-07 08:54 25.70649 -17.13271 36000 ft 405 kts 28°
2026-05-07 08:54 25.75392 -17.09940 36000 ft 405 kts 28°
2026-05-07 08:55 25.80131 -17.06607 36000 ft 405 kts 28°
2026-05-07 08:55 25.84858 -17.03295 36014 ft 397 kts 30°
2026-05-07 08:56 25.89431 -17.00069 36030 ft 388 kts 31°
2026-05-07 08:56 25.93977 -16.96855 36044 ft 387 kts 31°
2026-05-07 08:57 25.98503 -16.93659 36051 ft 387 kts 31°
2026-05-07 08:57 26.03025 -16.90465 36053 ft 387 kts 31°
2026-05-07 08:58 26.07543 -16.87271 36054 ft 387 kts 31°
2026-05-07 08:58 26.12142 -16.84018 36055 ft 387 kts 31°
2026-05-07 08:59 26.16680 -16.80805 36054 ft 387 kts 31°
2026-05-07 08:59 26.21196 -16.77604 36054 ft 387 kts 31°
2026-05-07 09:00 26.25719 -16.74400 36054 ft 387 kts 31°
2026-05-07 09:00 26.30246 -16.71193 36054 ft 387 kts 31°
2026-05-07 09:01 26.34768 -16.67987 36054 ft 387 kts 31°
2026-05-07 09:01 26.39310 -16.64764 36054 ft 387 kts 31°
2026-05-07 09:02 26.43838 -16.61548 36054 ft 387 kts 31°
2026-05-07 09:02 26.48352 -16.58339 36054 ft 387 kts 31°
2026-05-07 09:03 26.52897 -16.55105 36054 ft 387 kts 31°
2026-05-07 09:03 26.57421 -16.51883 36054 ft 387 kts 31°
2026-05-07 09:04 26.61948 -16.48656 36054 ft 387 kts 31°
2026-05-07 09:04 26.66462 -16.45435 36054 ft 387 kts 31°
2026-05-07 09:05 26.70982 -16.42206 36054 ft 387 kts 31°
2026-05-07 09:05 26.75515 -16.38967 36054 ft 387 kts 31°
2026-05-07 09:06 26.80025 -16.35740 36054 ft 387 kts 31°
2026-05-07 09:06 26.84555 -16.32496 36054 ft 387 kts 31°
2026-05-07 09:07 26.89057 -16.29269 36054 ft 387 kts 31°
2026-05-07 09:07 26.93572 -16.26021 36054 ft 387 kts 31°
2026-05-07 09:08 26.98101 -16.22757 36054 ft 387 kts 31°
2026-05-07 09:08 27.02609 -16.19507 36054 ft 387 kts 31°
2026-05-07 09:09 27.07131 -16.16246 36054 ft 387 kts 31°
2026-05-07 09:09 27.11623 -16.13004 36056 ft 387 kts 31°
2026-05-07 09:10 27.16148 -16.09735 36054 ft 387 kts 31°
2026-05-07 09:10 27.20675 -16.06475 36055 ft 387 kts 33°
2026-05-07 09:11 27.25194 -16.03209 36054 ft 387 kts 34°
2026-05-07 09:11 27.29691 -15.99939 36054 ft 387 kts 33°
2026-05-07 09:12 27.34191 -15.96670 36054 ft 387 kts 34°
2026-05-07 09:12 27.38709 -15.93386 36054 ft 387 kts 33°
2026-05-07 09:13 27.43219 -15.90109 36054 ft 387 kts 33°
2026-05-07 09:13 27.47732 -15.86824 36054 ft 387 kts 33°
2026-05-07 09:14 27.52227 -15.83551 36054 ft 387 kts 33°
2026-05-07 09:14 27.56739 -15.80262 36054 ft 387 kts 33°
2026-05-07 09:15 27.61239 -15.76979 36054 ft 387 kts 33°
2026-05-07 09:15 27.65737 -15.73695 36054 ft 387 kts 33°
2026-05-07 09:16 27.70248 -15.70399 36054 ft 387 kts 33°
2026-05-07 09:16 27.74754 -15.67099 36054 ft 387 kts 33°
2026-05-07 09:17 27.79246 -15.63806 36054 ft 387 kts 33°
2026-05-07 09:17 27.83739 -15.60511 36054 ft 387 kts 33°
2026-05-07 09:18 27.88252 -15.57197 36054 ft 387 kts 33°
2026-05-07 09:18 27.92724 -15.53912 36053 ft 387 kts 33°
2026-05-07 09:19 27.97235 -15.50595 36054 ft 387 kts 33°
2026-05-07 09:19 28.01723 -15.47291 36054 ft 387 kts 33°
2026-05-07 09:20 28.06239 -15.43963 36054 ft 387 kts 33°
2026-05-07 09:20 28.10722 -15.40644 36055 ft 387 kts 34°
2026-05-07 09:21 28.15195 -15.37320 36055 ft 387 kts 34°
2026-05-07 09:21 28.19706 -15.33964 36055 ft 387 kts 34°
2026-05-07 09:22 28.24200 -15.30619 36054 ft 388 kts 34°
2026-05-07 09:22 28.28684 -15.27279 36054 ft 388 kts 34°
2026-05-07 09:23 28.33181 -15.23926 36054 ft 388 kts 34°
2026-05-07 09:23 28.37655 -15.20587 36055 ft 388 kts 34°
2026-05-07 09:24 28.42172 -15.17213 36054 ft 388 kts 34°
2026-05-07 09:24 28.46644 -15.13870 36054 ft 388 kts 34°
2026-05-07 09:25 28.51129 -15.10511 36054 ft 388 kts 34°
2026-05-07 09:25 28.55620 -15.07150 36051 ft 388 kts 35°
2026-05-07 09:26 28.60161 -15.03756 36053 ft 394 kts 36°
2026-05-07 09:26 28.64741 -15.00307 36054 ft 394 kts 36°
2026-05-07 09:27 28.69293 -14.96880 36054 ft 394 kts 36°
2026-05-07 09:28 28.76133 -14.91729 36054 ft 394 kts 36°
2026-05-07 09:28 28.80688 -14.88296 36054 ft 394 kts 36°
2026-05-07 09:29 28.85256 -14.84850 36054 ft 394 kts 36°
2026-05-07 09:29 28.89800 -14.81417 36054 ft 394 kts 36°
2026-05-07 09:30 28.94389 -14.77947 36054 ft 394 kts 36°
2026-05-07 09:30 28.98924 -14.74514 36054 ft 394 kts 36°
2026-05-07 09:31 29.03475 -14.71066 36054 ft 394 kts 36°
2026-05-07 09:31 29.08049 -14.67596 36054 ft 394 kts 36°
2026-05-07 09:32 29.12595 -14.64144 36054 ft 394 kts 36°
2026-05-07 09:32 29.17145 -14.60686 36054 ft 394 kts 36°
2026-05-07 09:33 29.21701 -14.57219 36054 ft 394 kts 36°
2026-05-07 09:33 29.26234 -14.53765 36054 ft 394 kts 36°
2026-05-07 09:34 29.30797 -14.50284 36054 ft 394 kts 36°
2026-05-07 09:34 29.35347 -14.46811 36054 ft 394 kts 36°
2026-05-07 09:35 29.39891 -14.43337 36054 ft 394 kts 36°
2026-05-07 09:35 29.44430 -14.39865 36054 ft 394 kts 36°
2026-05-07 09:36 29.48974 -14.36384 36054 ft 394 kts 36°
2026-05-07 09:36 29.53533 -14.32888 36055 ft 394 kts 37°
2026-05-07 09:37 29.58063 -14.29410 36054 ft 394 kts 37°
2026-05-07 09:37 29.62609 -14.25917 36054 ft 394 kts 36°
2026-05-07 09:38 29.67157 -14.22417 36054 ft 394 kts 36°
2026-05-07 09:38 29.71689 -14.18927 36054 ft 394 kts 37°
2026-05-07 09:39 29.76241 -14.15417 36054 ft 394 kts 36°
2026-05-07 09:39 29.80776 -14.11917 36054 ft 394 kts 37°
2026-05-07 09:40 29.85318 -14.08407 36054 ft 394 kts 37°
2026-05-07 09:40 29.89859 -14.04893 36054 ft 394 kts 37°
2026-05-07 09:41 29.94386 -14.01393 36034 ft 400 kts 37°
2026-05-07 09:41 29.99080 -13.97751 36039 ft 411 kts 37°
2026-05-07 09:42 30.03834 -13.94056 36032 ft 417 kts 37°
2026-05-07 09:42 30.08631 -13.90329 36029 ft 418 kts 37°
2026-05-07 09:43 30.13423 -13.86601 36028 ft 417 kts 37°
2026-05-07 09:43 30.18230 -13.82856 36027 ft 418 kts 37°
2026-05-07 09:44 30.23020 -13.79121 36028 ft 417 kts 37°
2026-05-07 09:44 30.27831 -13.75365 36028 ft 417 kts 37°
2026-05-07 09:45 30.32637 -13.71607 36028 ft 418 kts 37°
2026-05-07 09:45 30.37413 -13.67871 36028 ft 418 kts 37°
2026-05-07 09:46 30.42212 -13.64111 36028 ft 418 kts 37°
2026-05-07 09:46 30.47000 -13.60355 36028 ft 417 kts 37°
2026-05-07 09:47 30.51881 -13.56728 36028 ft 419 kts 33°
2026-05-07 09:47 30.57023 -13.53539 36028 ft 420 kts 31°
2026-05-07 09:48 30.62203 -13.50401 36028 ft 420 kts 31°
2026-05-07 09:48 30.67339 -13.47282 36027 ft 420 kts 31°
2026-05-07 09:49 30.72496 -13.44142 36027 ft 420 kts 31°
2026-05-07 09:49 30.77678 -13.40981 36027 ft 420 kts 31°
2026-05-07 09:50 30.82824 -13.37839 36027 ft 420 kts 31°
2026-05-07 09:50 30.87995 -13.34677 36028 ft 420 kts 31°
2026-05-07 09:51 30.93131 -13.31533 36027 ft 420 kts 31°
2026-05-07 09:51 30.98311 -13.28360 36028 ft 420 kts 31°
2026-05-07 09:52 31.03457 -13.25201 36027 ft 420 kts 31°
2026-05-07 09:52 31.08585 -13.22050 36027 ft 420 kts 31°
2026-05-07 09:53 31.13760 -13.18867 36027 ft 420 kts 31°
2026-05-07 09:53 31.18894 -13.15703 36027 ft 420 kts 31°
2026-05-07 09:54 31.24039 -13.12530 36027 ft 420 kts 31°
2026-05-07 09:54 31.29200 -13.09343 36028 ft 420 kts 31°
2026-05-07 09:55 31.34359 -13.06153 36028 ft 420 kts 31°
2026-05-07 09:55 31.39492 -13.02976 36027 ft 420 kts 31°
2026-05-07 09:56 31.44655 -12.99762 36003 ft 424 kts 30°
2026-05-07 09:56 31.49903 -12.96501 36026 ft 436 kts 29°
2026-05-07 09:57 31.55297 -12.93157 36029 ft 444 kts 29°
2026-05-07 09:57 31.60768 -12.89757 36028 ft 445 kts 29°
2026-05-07 09:58 31.66203 -12.86373 36028 ft 446 kts 29°
2026-05-07 09:58 31.71663 -12.82968 36027 ft 445 kts 29°
2026-05-07 09:59 31.77116 -12.79560 36028 ft 446 kts 29°
2026-05-07 09:59 31.82582 -12.76141 36027 ft 445 kts 29°
2026-05-07 10:00 31.88001 -12.72747 36028 ft 445 kts 29°
2026-05-07 10:00 31.93482 -12.69307 36027 ft 445 kts 29°
2026-05-07 10:01 31.98915 -12.65895 36028 ft 445 kts 29°
2026-05-07 10:01 32.04365 -12.62466 36027 ft 445 kts 29°
2026-05-07 10:02 32.09787 -12.59052 36028 ft 445 kts 29°
2026-05-07 10:02 32.15232 -12.55618 36027 ft 445 kts 29°
2026-05-07 10:03 32.20684 -12.52175 36028 ft 445 kts 29°
2026-05-07 10:03 32.26146 -12.48721 36028 ft 446 kts 29°
2026-05-07 10:04 32.31589 -12.45273 36027 ft 445 kts 29°
2026-05-07 10:04 32.37001 -12.41841 36027 ft 445 kts 29°
2026-05-07 10:05 32.42445 -12.38384 36028 ft 445 kts 29°
2026-05-07 10:05 32.47886 -12.34924 36028 ft 445 kts 30°
2026-05-07 10:06 32.53328 -12.31458 36028 ft 446 kts 30°
2026-05-07 10:06 32.58792 -12.27974 36028 ft 446 kts 30°
2026-05-07 10:07 32.64216 -12.24510 36028 ft 446 kts 30°
2026-05-07 10:07 32.69683 -12.21014 36028 ft 446 kts 30°